Wind_Speed
20 19 19 20 20 19 19 19 19 19 19 19 19 19 19 19 19 20 20 20 20 20 20 20 20 21 21 21 22 22 21 21 21 21 21 20 21 21 22 23 22 22 22
20 20 21 21 21 21 20 19 19 20 20 20 20 20 20 21 21 21 21 21 22 22 23 22 22 23 23 23 23 23 22 22 22 22 22 22 22 22 21 22 22 23 23
20 20 21 22 21 22 21 21 21 21 21 21 21 21 22 22 23 23 23 23 23 24 24 25 24 24 24 24 24 24 24 24 24 23 23 23 23 23 22 22 22 22 23
21 21 21 22 21 22 22 22 22 22 23 23 23 23 23 23 24 24 24 25 25 25 26 26 26 25 25 26 26 26 26 26 25 25 24 24 24 24 23 23 22 23 24
23 23 22 22 22 22 23 23 23 23 24 24 24 24 24 24 25 25 26 26 26 26 26 26 26 26 26 26 26 27 27 27 27 26 25 25 25 25 24 24 23 24 24
24 24 24 24 24 24 24 24 24 24 24 25 25 25 25 25 26 26 26 26 26 25 25 25 25 25 26 26 26 27 27 27 27 27 27 26 25 25 25 25 25 25 25
25 26 26 27 27 26 27 27 27 26 26 26 27 27 27 27 27 27 28 26 25 25 25 25 24 25 25 25 26 26 27 27 27 27 27 27 26 26 26 26 26 25 26
27 27 27 28 28 28 28 28 29 29 28 28 27 27 27 28 28 28 28 28 27 26 25 25 25 25 25 25 25 25 26 27 27 27 28 28 28 28 27 26 26 26 26
28 28 29 29 30 30 29 29 29 29 29 28 28 28 29 29 29 29 29 28 27 26 25 25 25 25 25 25 26 26 26 26 27 28 28 28 28 28 28 27 26 26 26
28 27 28 29 30 30 30 30 29 29 29 29 29 29 29 28 28 28 28 28 27 26 26 25 26 26 26 26 26 26 26 26 26 27 28 27 28 28 28 27 27 27 27
28 29 29 29 29 30 30 29 28 28 28 28 28 28 27 27 27 27 27 27 27 26 27 26 27 27 27 27 27 26 26 27 27 26 27 28 27 27 27 28 28 28 28
30 31 30 30 30 30 29 29 29 29 28 28 28 27 26 26 26 27 27 27 27 26 26 26 27 27 27 27 27 27 26 27 27 27 27 28 27 27 27 27 28 28 28
31 30 30 30 30 30 30 30 30 29 28 28 28 27 27 26 26 27 27 28 27 27 27 26 26 26 27 28 28 27 26 26 26 27 27 27 28 28 28 27 27 28 28
31 31 31 31 31 30 30 30 29 28 28 28 28 28 27 27 26 27 27 27 27 27 27 27 27 26 27 27 27 27 26 26 25 26 26 26 27 28 28 28 27 28 28
31 31 31 31 31 31 30 29 29 28 28 28 28 28 28 27 27 27 27 27 27 27 27 27 27 27 27 26 26 26 26 26 25 25 25 25 26 28 28 28 28 28 28
32 32 32 32 31 31 30 30 30 29 28 28 28 27 27 26 26 27 27 28 28 28 27 27 26 26 26 25 25 25 26 26 26 25 25 26 26 26 27 27 28 28 27
33 32 31 31 31 30 30 30 30 29 29 28 28 27 27 26 26 26 27 28 27 27 27 27 26 25 25 24 24 24 25 25 25 25 25 25 26 26 27 27 28 28 28
32 31 30 30 30 30 29 29 29 29 29 28 28 28 27 27 27 27 27 27 27 27 26 26 26 25 24 24 23 24 24 24 24 25 25 26 26 27 27 27 28 28 28
30 30 30 30 30 29 29 29 28 28 28 28 27 27 27 28 28 28 27 27 27 26 26 26 26 25 25 24 24 24 24 24 24 24 24 25 26 27 28 28 28 28 28
29 29 28 28 28 27 27 27 27 26 26 27 27 27 27 27 27 27 27 26 26 26 26 26 25 25 25 24 24 24 24 24 24 25 25 25 26 26 27 27 28 29 29
28 28 28 27 27 26 26 26 25 25 26 26 26 26 26 26 26 26 26 26 25 25 25 25 25 25 24 24 24 24 24 25 25 25 25 25 25 26 26 27 27 28 29
28 28 28 27 26 25 24 24 25 25 25 25 25 25 26 26 25 25 24 24 24 24 25 25 25 25 24 24 24 25 25 25 25 25 25 25 26 26 26 27 27 28 28
28 27 26 26 25 24 23 24 24 24 24 24 24 24 25 25 25 24 24 24 24 24 24 25 25 25 24 24 25 25 25 24 24 25 25 26 26 26 26 27 27 27 28
27 26 25 25 24 24 23 23 24 24 24 24 24 24 24 24 24 23 24 24 24 24 25 25 25 25 25 25 25 25 24 24 24 24 25 25 26 26 26 26 26 27 27
25 25 24 24 23 23 23 23 23 23 23 23 24 24 24 24 24 23 23 24 24 25 25 25 25 24 24 24 24 24 24 24 24 24 24 25 25 25 26 26 27 27 28
24 24 23 23 22 22 23 23 23 23 23 24 24 23 23 23 24 24 23 23 24 24 25 25 24 24 24 24 24 24 24 24 24 24 24 25 25 25 25 25 26 27 27
Wind_Direction
296 293 289 287 283 281 281 277 276 276 275 274 274 274 274 274 274 274 274 274 274 273 274 275 274 272 271 271 271 271 271 268 268 269 268 268 267 264 262 260 261 260 257
294 292 290 288 286 283 281 280 277 276 275 274 274 274 274 275 275 275 274 274 274 274 274 274 273 272 270 270 270 271 270 269 269 268 268 266 266 264 261 260 259 258 257
292 291 289 288 287 285 283 281 279 278 276 275 274 274 274 275 277 276 277 275 274 274 274 273 273 272 270 269 269 270 269 268 268 268 267 266 265 264 263 262 259 257 256
290 290 289 288 287 285 284 283 281 279 279 277 277 275 275 276 277 278 279 277 276 275 275 274 272 271 271 270 269 268 268 268 267 267 266 264 264 264 264 262 261 261 258
289 289 288 289 287 287 285 284 282 280 279 279 280 278 276 277 278 279 279 279 278 276 275 274 273 272 271 271 269 268 268 267 265 265 264 263 262 263 263 261 261 260 258
287 287 286 288 287 286 285 284 283 281 280 280 279 278 277 277 278 279 280 280 279 277 275 274 273 272 271 271 270 269 267 266 265 264 261 260 259 260 260 261 261 259 257
285 286 286 286 286 285 285 284 282 280 278 278 279 278 278 277 278 279 280 280 279 278 276 274 273 272 272 272 271 269 267 266 264 262 260 259 258 257 259 260 259 257 257
284 284 285 285 287 286 285 284 283 282 280 279 279 279 279 278 277 278 277 277 277 277 276 274 272 272 272 272 271 270 269 267 264 261 260 259 258 258 259 258 258 258 258
285 285 286 286 287 286 285 285 283 283 282 280 278 278 278 277 276 277 276 275 275 275 274 272 271 271 271 272 273 273 271 268 265 262 259 259 258 258 258 258 257 257 258
289 288 287 287 288 286 285 284 283 283 283 282 279 278 277 277 276 275 274 273 273 273 272 271 270 270 271 272 274 273 270 269 266 263 260 259 258 257 258 258 257 257 257
288 290 289 288 288 287 285 283 282 282 283 283 281 279 278 277 276 274 273 272 273 272 271 271 271 271 272 273 273 273 271 269 266 263 259 258 257 257 257 257 257 257 257
289 289 289 288 288 289 286 283 282 282 282 281 280 278 278 277 276 274 272 272 272 272 272 272 273 270 270 272 273 272 270 268 265 263 260 258 257 257 256 255 256 257 257
290 288 288 287 288 289 287 284 282 281 280 279 278 278 277 277 276 275 273 272 271 271 272 273 274 272 271 271 272 272 270 268 266 264 262 259 257 257 257 257 257 257 257
289 289 288 287 286 287 287 284 281 280 280 279 279 278 277 277 276 275 274 272 270 270 272 273 275 274 272 272 272 271 269 268 266 264 262 260 259 257 256 257 258 257 257
289 288 288 287 286 286 285 285 283 281 280 280 279 277 277 276 276 275 273 272 271 271 272 273 275 276 275 272 271 269 268 267 266 264 263 262 261 260 259 259 259 258 257
290 289 288 287 286 285 284 284 284 282 280 280 279 278 277 276 274 274 273 272 271 270 271 272 273 275 275 272 270 269 267 266 266 264 264 264 264 263 262 260 258 258 257
291 290 288 286 287 286 285 284 283 280 280 279 279 278 276 276 275 275 274 274 272 270 270 271 272 273 274 272 269 267 265 264 264 264 264 264 263 263 262 261 260 258 257
291 290 289 288 288 288 286 284 282 279 279 278 278 277 276 276 276 276 276 274 272 270 269 269 270 270 271 272 270 267 265 263 263 264 264 264 263 263 262 262 260 258 256
292 291 291 288 287 287 285 283 280 279 278 277 277 277 276 276 276 276 276 274 272 270 268 269 268 269 269 269 269 268 266 263 263 263 263 263 263 262 262 262 260 258 255
293 292 291 288 286 286 284 282 280 279 279 278 276 276 276 276 276 276 275 273 272 270 269 268 267 267 268 267 267 267 266 265 264 263 264 264 264 264 264 262 260 257 255
296 293 291 288 286 285 285 283 281 279 279 278 276 275 275 276 276 276 274 272 271 269 268 268 268 267 267 267 268 267 266 265 264 265 265 265 264 265 264 263 261 259 256
297 294 291 288 285 283 283 283 282 280 279 278 277 276 276 276 276 275 273 272 270 268 267 268 268 267 266 268 269 268 267 266 265 266 266 266 265 265 263 263 262 260 258
296 294 293 290 286 284 284 283 281 280 279 279 277 276 276 277 276 275 273 272 270 268 267 268 269 268 268 269 269 268 268 267 266 265 265 265 266 265 265 264 263 262 260
295 293 292 290 286 283 283 282 281 280 279 279 279 277 277 276 275 275 273 271 270 270 269 269 270 269 269 270 270 269 268 268 266 266 266 267 266 265 265 265 264 262 260
295 295 294 291 288 285 284 283 282 280 279 278 279 279 277 277 276 274 274 272 272 271 270 270 271 270 269 269 269 269 269 268 266 267 268 267 266 266 266 266 265 265 263
295 295 294 293 292 289 287 285 283 281 279 280 281 280 278 277 276 275 275 276 275 274 273 272 271 270 269 268 267 267 268 269 268 269 269 268 267 267 268 268 267 266 265
Height
5784 5782 5781 5780 5779 5779 5778 5778 5777 5777 5776 5776 5776 5776 5775 5775 5774 5774 5773 5773 5772 5772 5772 5771 5771 5771 5771 5771 5771 5771 5771 5771 5771 5772 5772 5772 5772 5772 5773 5774 5774 5775 5776
5779 5777 5776 5775 5774 5773 5773 5772 5772 5771 5771 5770 5770 5769 5769 5769 5768 5768 5767 5766 5766 5765 5765 5765 5764 5764 5764 5764 5764 5764 5764 5764 5765 5765 5765 5765 5766 5766 5766 5767 5768 5768 5769
5773 5772 5770 5769 5768 5767 5766 5766 5766 5765 5764 5764 5764 5763 5763 5762 5762 5761 5760 5760 5759 5758 5758 5757 5757 5757 5757 5757 5757 5757 5757 5757 5758 5758 5758 5759 5759 5759 5760 5760 5761 5761 5762
5767 5766 5765 5763 5762 5761 5760 5760 5759 5758 5758 5757 5757 5756 5756 5755 5755 5754 5753 5752 5751 5750 5750 5749 5749 5749 5749 5749 5749 5749 5749 5750 5750 5750 5751 5751 5752 5752 5752 5753 5754 5754 5755
5761 5760 5759 5757 5756 5755 5754 5753 5752 5751 5751 5750 5749 5749 5749 5748 5747 5746 5746 5744 5743 5742 5741 5741 5740 5740 5740 5740 5740 5741 5741 5741 5742 5742 5743 5743 5744 5745 5745 5746 5747 5747 5748
5754 5753 5752 5750 5749 5748 5747 5746 5745 5744 5743 5742 5742 5741 5741 5740 5739 5738 5737 5736 5735 5734 5733 5732 5732 5732 5732 5732 5732 5732 5732 5732 5733 5733 5734 5735 5736 5737 5737 5738 5739 5740 5741
5747 5746 5745 5744 5742 5741 5740 5738 5737 5736 5735 5734 5733 5733 5732 5731 5730 5730 5729 5728 5727 5726 5725 5725 5724 5724 5723 5723 5723 5723 5723 5723 5724 5724 5725 5726 5727 5728 5729 5730 5730 5732 5733
5740 5738 5737 5736 5734 5733 5732 5730 5729 5727 5727 5726 5725 5724 5723 5723 5722 5721 5720 5719 5718 5718 5717 5717 5716 5716 5715 5715 5715 5714 5714 5714 5714 5715 5716 5717 5717 5718 5719 5721 5721 5723 5724
5732 5730 5729 5727 5726 5724 5723 5721 5720 5719 5718 5717 5716 5715 5714 5713 5712 5711 5711 5710 5709 5709 5709 5708 5708 5707 5707 5706 5706 5706 5705 5705 5704 5705 5706 5707 5708 5709 5710 5712 5713 5715 5716
5724 5722 5720 5719 5717 5715 5714 5712 5711 5710 5708 5707 5706 5705 5704 5704 5703 5702 5701 5701 5701 5700 5700 5700 5699 5699 5698 5697 5697 5696 5696 5696 5696 5696 5697 5698 5699 5700 5701 5703 5704 5706 5707
5715 5713 5712 5710 5708 5706 5704 5703 5701 5700 5699 5698 5697 5696 5695 5694 5693 5693 5692 5692 5691 5691 5691 5691 5690 5690 5689 5688 5688 5687 5687 5687 5687 5687 5688 5689 5690 5691 5693 5694 5695 5697 5698
5706 5704 5703 5701 5699 5697 5695 5693 5692 5691 5690 5689 5688 5687 5686 5685 5684 5684 5683 5683 5683 5682 5682 5682 5681 5680 5680 5679 5679 5678 5678 5677 5678 5678 5679 5680 5681 5683 5684 5685 5686 5688 5689
5697 5695 5693 5691 5690 5687 5686 5684 5683 5681 5680 5679 5678 5677 5677 5676 5675 5675 5674 5674 5673 5673 5673 5672 5672 5671 5670 5670 5669 5669 5669 5668 5669 5669 5670 5672 5673 5674 5675 5677 5678 5679 5680
5688 5686 5684 5682 5680 5678 5676 5675 5673 5672 5671 5670 5669 5668 5667 5666 5666 5665 5665 5665 5664 5664 5664 5663 5663 5662 5661 5660 5660 5660 5660 5660 5660 5661 5661 5663 5664 5665 5666 5668 5669 5670 5672
5679 5676 5674 5672 5670 5668 5667 5665 5664 5663 5661 5660 5660 5659 5658 5657 5657 5656 5655 5655 5655 5655 5655 5654 5654 5653 5652 5652 5651 5651 5651 5651 5652 5652 5653 5654 5655 5656 5657 5659 5660 5661 5663
5668 5666 5664 5662 5660 5658 5657 5655 5654 5653 5652 5651 5650 5650 5649 5648 5647 5647 5646 5646 5645 5645 5645 5645 5645 5644 5643 5643 5642 5642 5642 5643 5643 5644 5645 5646 5646 5647 5649 5650 5651 5652 5654
5658 5656 5653 5651 5650 5648 5647 5646 5645 5644 5642 5641 5641 5640 5639 5639 5638 5638 5637 5637 5636 5636 5636 5636 5636 5636 5635 5634 5634 5634 5634 5634 5635 5636 5637 5637 5638 5639 5640 5641 5642 5644 5645
5648 5645 5643 5641 5640 5638 5637 5636 5635 5634 5633 5632 5631 5631 5630 5630 5629 5628 5628 5628 5627 5627 5627 5627 5627 5627 5627 5626 5626 5626 5626 5626 5627 5627 5628 5629 5630 5630 5631 5632 5633 5634 5636
5638 5635 5633 5631 5630 5628 5627 5626 5625 5624 5624 5623 5623 5622 5621 5620 5620 5619 5619 5618 5618 5618 5618 5618 5618 5618 5618 5618 5618 5618 5618 5618 5619 5619 5620 5620 5621 5622 5622 5623 5624 5625 5626
5629 5626 5624 5622 5621 5619 5618 5617 5616 5615 5615 5614 5613 5613 5612 5611 5611 5610 5610 5610 5610 5609 5609 5610 5610 5610 5610 5610 5610 5610 5610 5610 5611 5611 5612 5612 5612 5613 5613 5614 5615 5616 5617
5620 5618 5616 5614 5612 5611 5610 5608 5608 5607 5606 5605 5604 5604 5603 5603 5602 5602 5601 5601 5601 5601 5601 5601 5601 5602 5602 5602 5602 5602 5602 5602 5602 5603 5603 5603 5604 5604 5605 5605 5606 5607 5608
5612 5609 5607 5605 5604 5603 5602 5600 5600 5599 5598 5597 5596 5595 5595 5594 5594 5593 5593 5593 5593 5593 5593 5593 5593 5593 5593 5593 5594 5594 5594 5594 5594 5594 5594 5595 5595 5596 5596 5596 5597 5598 5599
5604 5601 5599 5597 5596 5595 5594 5592 5591 5591 5590 5589 5588 5587 5587 5586 5586 5586 5585 5585 5584 5584 5584 5584 5585 5585 5585 5585 5585 5585 5585 5585 5585 5585 5586 5586 5586 5587 5587 5588 5588 5589 5590
5596 5593 5591 5589 5588 5587 5586 5585 5583 5583 5582 5581 5580 5580 5579 5578 5578 5578 5577 5577 5576 5576 5576 5576 5576 5576 5576 5576 5576 5576 5576 5576 5577 5577 5577 5577 5578 5578 5579 5579 5579 5580 5581
5588 5586 5583 5581 5580 5579 5577 5577 5576 5575 5574 5574 5573 5572 5571 5570 5570 5569 5569 5568 5568 5568 5568 5567 5567 5567 5567 5568 5568 5568 5568 5568 5568 5568 5569 5569 5569 5570 5570 5571 5571 5571 5572
5580 5578 5576 5574 5572 5571 5570 5569 5568 5567 5567 5566 5565 5564 5563 5562 5562 5561 5561 5560 5560 5559 5559 5559 5558 5558 5559 5559 5559 5559 5559 5559 5560 5560 5560 5560 5561 5561 5561 5562 5562 5562 5563